Find Starlink 2555

NORAD ID: 48291 Int'l Des: 2021-036 Owner: SPXS Country: US Constellation: starlink operational
LEOCIRCULAR

当前视图

正在加载3D地球...

About Starlink 2555

Starlink 2555 (NORAD 48291) is a starlink constellation satellite (v1.0) launched Apr 29, 2021 by SPXS of US. It operates in LEO, CIRCULAR orbit with a mass of 260.00 kg.

关于 Starlink 2555

正在加载描述...

即将过境

Passes for default location (London). Set your location on the main map for personalized predictions.

高度历史

Loading altitude history...

两行轨道根数

1 48291U 21036R 26195.33123724 .00001338 00000-0 54865-4 0 9991
2 48291 53.1591 208.5703 0001095 78.7431 281.3694 15.31712286287770
Epoch: Jul 14, 2026 • Age: 15 hours

当前状态

高度 470.8 km
远地点 / 近地点 N/A
速度 7.63 km/s
星下点 15.95°N, 99.51°E
发射日期 Apr 29, 2021
运行时间 5.2 years
类型 internet

技术详情

分类 Payload
质量 260.00 kg
干质量 248.00 kg
总质量 260.00 kg
长度 0.20 m
直径 2.80 m
跨度 9.00 m
形状 Box + pan
制造商 SPXS
平台类型 Starlink
阶段状态 In Orbit
所有者/国家 SPXS/US

Most Searched